Location: *
(1.3500°S, 147.5000°W)
Time: 19:47:54
(UTC+00:00)

NATO 3D Rocket - Pass Details

Date: 07 April 2020
Orbit: 670 x 2296 km, 21.5° (Epoch: 27 May)

Event Time Altitude Azimuth Distance (km) Brightness Sun altitude
Rises 04:54:58 0° 298° (WNW) 3,152 8.1 -15.8°
Reaches altitude 10° 04:57:08 10° 300° (WNW) 2,334 7.1 -16.3°
Maximum altitude 05:02:35 73° 24° (NNE) 995 4.0 -17.7°
Enters shadow 05:06:31 28° 103° (ESE) 1,924 4.9 -18.6°
